Location: Assche-ter-Heiden
(50.9174°N, 4.1574°E)
Time: 19:12:24
(UTC+00:00)

Cosmos 1680 Rocket - Pass Details

Date: 20 January 2020
Orbit: 760 x 781 km, 74.1° (Epoch: 16 February)

Event Time Altitude Azimuth Distance (km) Brightness Sun altitude
Rises 06:00:20 0° 196° (SSW) 3,253 6.7 -14.6°
Reaches altitude 10° 06:02:43 10° 195° (SSW) 2,330 6.0 -14.3°
Maximum altitude 06:08:00 74° 111° (ESE) 817 3.8 -13.5°
Drops below altitude 10° 06:13:19 10° 27° (NNE) 2,346 6.2 -12.7°
Sets 06:15:43 0° 26° (NNE) 3,277 6.9 -12.3°
